TimeCST,TemperatureF,Dew PointF,Humidity,Sea Level PressureIn,VisibilityMPH,Wind Direction,Wind SpeedMPH,Gust SpeedMPH,PrecipitationIn,Events,Conditions,WindDirDegrees,DateUTC
12:40 AM,55.4,48.2,77,29.89,10.0,NNE,10.4,-,N/A,,Overcast,30,2012-12-10 06:40:00
12:45 AM,55.4,46.4,72,29.90,10.0,NNE,8.1,19.6,N/A,,Overcast,20,2012-12-10 06:45:00
12:55 AM,55.2,47.5,75,29.90,10.0,North,10.4,-,N/A,,Overcast,10,2012-12-10 06:55:00
1:30 AM,55.4,46.4,72,29.91,10.0,North,12.7,21.9,N/A,,Overcast,10,2012-12-10 07:30:00
1:55 AM,54.3,43.9,68,29.91,10.0,NNE,12.7,19.6,N/A,,Overcast,20,2012-12-10 07:55:00
1:57 AM,53.6,44.6,72,29.91,10.0,North,15.0,20.7,N/A,,Overcast,10,2012-12-10 07:57:00
2:44 AM,53.6,41.0,62,29.93,10.0,North,18.4,27.6,N/A,,Overcast,10,2012-12-10 08:44:00
2:55 AM,53.1,39.9,61,29.93,10.0,North,17.3,26.5,N/A,,Overcast,10,2012-12-10 08:55:00
3:55 AM,49.1,29.8,47,29.99,10.0,North,24.2,38.0,N/A,,Overcast,350,2012-12-10 09:55:00
4:55 AM,44.2,18.1,35,30.03,10.0,North,24.2,40.3,N/A,,Overcast,350,2012-12-10 10:55:00
5:55 AM,42.6,16.3,35,30.05,10.0,North,23.0,33.4,N/A,,Overcast,360,2012-12-10 11:55:00
5:58 AM,42.8,15.8,34,30.05,10.0,North,20.7,33.4,N/A,,Overcast,350,2012-12-10 11:58:00
6:55 AM,41.5,14.4,33,30.07,10.0,North,15.0,23.0,N/A,,Overcast,350,2012-12-10 12:55:00
7:55 AM,42.3,14.2,32,30.10,10.0,North,19.6,24.2,N/A,,Overcast,360,2012-12-10 13:55:00
8:55 AM,41.9,13.8,32,30.13,10.0,North,20.7,25.3,N/A,,Overcast,350,2012-12-10 14:55:00
9:55 AM,42.1,15.1,34,30.15,10.0,NNW,17.3,24.2,N/A,,Overcast,340,2012-12-10 15:55:00
10:55 AM,47.7,19.6,33,30.13,10.0,NNW,17.3,26.5,N/A,,Clear,340,2012-12-10 16:55:00
11:55 AM,51.1,22.1,32,30.12,10.0,NNW,17.3,21.9,N/A,,Clear,340,2012-12-10 17:55:00
12:55 PM,52.3,23.2,32,30.09,10.0,NNW,16.1,-,N/A,,Clear,330,2012-12-10 18:55:00
1:55 PM,53.4,24.3,32,30.07,10.0,North,12.7,-,N/A,,Clear,10,2012-12-10 19:55:00
2:55 PM,53.2,23.0,31,30.06,10.0,North,13.8,-,N/A,,Clear,360,2012-12-10 20:55:00
3:55 PM,52.2,21.9,31,30.07,10.0,NNW,10.4,-,N/A,,Clear,340,2012-12-10 21:55:00
4:55 PM,50.7,21.6,32,30.06,10.0,North,8.1,-,N/A,,Clear,360,2012-12-10 22:55:00
5:55 PM,46.9,22.6,38,30.08,10.0,North,4.6,-,N/A,,Clear,360,2012-12-10 23:55:00
6:55 PM,44.2,22.5,42,30.09,10.0,North,5.8,-,N/A,,Clear,360,2012-12-11 00:55:00
7:55 PM,41.2,22.1,47,30.12,10.0,North,5.8,-,N/A,,Clear,350,2012-12-11 01:55:00
8:55 PM,39.9,22.3,49,30.12,10.0,North,5.8,-,N/A,,Clear,360,2012-12-11 02:55:00
9:55 PM,38.1,21.0,50,30.13,10.0,NNE,4.6,-,N/A,,Clear,20,2012-12-11 03:55:00
10:55 PM,38.7,18.9,45,30.12,10.0,NNE,5.8,-,N/A,,Clear,30,2012-12-11 04:55:00
11:55 PM,36.7,18.3,47,30.13,10.0,NNE,8.1,-,N/A,,Clear,20,2012-12-11 05:55:00